Location: *
(51.8167°N, 12.5000°E)
Time: 23:05:33
(UTC+00:00)

Cosmos 2297 Rocket - Pass Details

Date: 16 September 2019
Orbit: 841 x 842 km, 71.0° (Epoch: 17 October)

Event Time Altitude Azimuth Distance (km) Brightness Sun altitude
Exits shadow 21:30:03 - 246° (WSW) 2,729 4.9 -32.1°
Reaches altitude 10° 21:30:50 10° 250° (WSW) 2,462 4.7 -32.2°
Maximum altitude 21:35:57 35° 315° (NW) 1,351 3.6 -32.5°
Drops below altitude 10° 21:41:07 10° 20° (NNE) 2,473 5.1 -32.9°
Sets 21:43:48 0° 30° (NNE) 3,411 5.8 -33.0°
